Tracking 29034 objects as of 25-Jun-2024
HD Live streaming from Space Station
objects crossing your sky now

STARLINK-31406

Track STARLINK-31406 now!
10-day predictions
STARLINK-31406 is classified as:


NORAD ID: 59017
Int'l Code: 2024-036V
Perigee: 488.0 km
Apogee: 489.8 km
Inclination: 53.2 °
Period: 94.2 minutes
Semi major axis: 6859 km
RCS: Unknown
Launch date: February 23, 2024
Source: United States (US)
Launch site: AIR FORCE WESTERN TEST RANGE (AFWTR)
Your satellite tracking list
Your tracking list is empty




NASA's NSSDC Master Catalog

Two Line Element Set (TLE):
1 59017U 24036V   24176.18282086 -.00006849  00000-0 -23488-3 0  9999
2 59017  53.1603  94.0993 0001311  96.9517 263.1632 15.28010682 19881
Source of the keplerian elements: AFSPC